Stations météo

Publicité
St-Sauveur, France (7300): Température de l'air & dewpoint: 20.06.2019 19:00:00 - 26.06.2019 19:00:00 (CEST)St-Sauveur, France (7300): Vitesse du vent & gusts: 20.06.2019 19:00:00 - 26.06.2019 19:00:00 (CEST)St-Sauveur, France (7300): Direction du vent: 20.06.2019 19:00:00 - 26.06.2019 19:00:00 (CEST)St-Sauveur, France (7300): reduced air pressure: 20.06.2019 19:00:00 - 26.06.2019 19:00:00 (CEST)St-Sauveur, France (7300): visibility: 20.06.2019 19:00:00 - 26.06.2019 19:00:00 (CEST)St-Sauveur, France (7300): Quantités de précipitations: 20.06.2019 19:00:00 - 26.06.2019 19:00:00 (CEST)
Date & Time tt [°C] td [°C] ff [km/h] ff [knt] fx [km/h] fx [knt] dd ppp [hPa] vv [km] rr [mm]
26.06.2019 19:00:00 30,3 18,1 4 2 14 7 E 1014,9 - 0,0
26.06.2019 18:00:00 29,7 18,2 5 3 19 11 SE 1015,4 - 0,0
26.06.2019 17:00:00 29,3 18,1 8 4 23 12 SE 1015,5 - 0,0
26.06.2019 16:00:00 29,1 18,5 10 5 21 11 SSE 1015,8 - 0,0
26.06.2019 15:00:00 28,3 19,8 10 5 25 13 S 1016,3 - 0,0
26.06.2019 14:00:00 27,4 19,2 12 6 24 13 SSE 1016,6 18 0,0
26.06.2019 13:00:00 28,5 21,3 11 6 25 14 ESE 1016,6 - 0,0
26.06.2019 12:00:00 27,9 21,2 16 8 33 18 ESE 1016,7 - 0,0
26.06.2019 11:00:00 25,7 20,5 19 10 40 22 E 1016,6 - 0,0
26.06.2019 10:00:00 23,2 20,2 23 12 45 24 ENE 1016,6 - 0,0
26.06.2019 09:00:00 21,2 19,5 27 15 46 25 NE 1016,9 - 0,0
26.06.2019 08:00:00 20,4 19,2 22 12 41 22 NE 1018,0 10 0,0
26.06.2019 07:00:00 20,1 19,3 23 13 39 21 NNE 1018,5 - 0,0
26.06.2019 06:00:00 19,8 19,1 23 12 44 24 NE 1017,5 - 0,0
26.06.2019 05:00:00 19,2 18,2 25 13 43 23 NNE 1017,8 25 0,0
26.06.2019 04:00:00 18,8 18,0 25 13 40 21 NNE 1018,2 - 0,0
26.06.2019 03:00:00 19,2 18,5 22 12 45 25 N 1018,3 - 5,0
26.06.2019 02:00:00 19,6 18,6 21 11 31 17 NNE 1018,8 20 0,0
26.06.2019 01:00:00 20,0 18,8 20 11 31 17 NNE 1019,5 - 0,6
26.06.2019 00:00:00 20,2 19,0 20 11 33 18 NNE 1019,0 - 0,4
25.06.2019 23:00:00 19,8 18,3 19 10 35 19 NNE 1019,2 20 0,0
25.06.2019 22:00:00 19,5 17,8 17 9 29 15 N 1018,4 - 0,0
25.06.2019 21:00:00 20,5 18,1 18 10 33 18 N 1018,8 - 0,0
25.06.2019 20:00:00 21,5 18,1 18 10 32 18 N 1018,7 20 0,0
25.06.2019 19:00:00 20,7 17,7 16 8 29 16 N 1018,7 - 0,0
25.06.2019 18:00:00 20,1 17,7 13 7 27 15 N 1018,7 - 0,0
25.06.2019 17:00:00 20,2 17,4 14 8 26 14 N 1018,8 10 0,0
25.06.2019 16:00:00 21,6 17,6 16 8 26 14 N 1018,5 - 0,0
25.06.2019 15:00:00 20,9 17,7 14 7 22 12 N 1018,2 - 0,0
25.06.2019 14:00:00 19,4 16,8 12 6 22 12 N 1018,4 - 0,0
25.06.2019 13:00:00 19,7 16,9 9 5 19 11 N 1018,3 - 0,0
25.06.2019 12:00:00 19,4 16,8 7 4 16 9 NNE 1018,0 - 0,0
25.06.2019 11:00:00 19,2 17,0 4 2 13 7 WSW 1017,4 10 0,0
25.06.2019 10:00:00 18,4 16,7 7 4 17 9 N 1017,2 - 0,0
25.06.2019 09:00:00 17,6 16,5 10 5 16 9 N 1016,9 - 0,0
25.06.2019 08:00:00 17,3 16,5 11 6 24 13 NNE 1016,3 - 0,0
25.06.2019 07:00:00 17,0 16,4 12 6 25 13 NNE 1015,7 - 0,0
25.06.2019 06:00:00 17,0 16,2 16 9 27 15 NE 1014,5 - 0,0
25.06.2019 05:00:00 17,2 16,4 18 10 34 18 NE 1014,6 - 0,2
25.06.2019 04:00:00 17,3 16,0 22 12 38 21 N 1014,8 - 0,0
25.06.2019 03:00:00 17,4 15,7 22 12 34 18 N 1015,6 - 0,0
25.06.2019 02:00:00 17,4 15,9 23 13 35 19 N 1015,6 - 0,0
25.06.2019 01:00:00 17,6 16,5 25 14 42 23 N 1015,3 - 0,0
25.06.2019 00:00:00 17,9 16,9 26 14 41 22 N 1015,1 - 0,0
24.06.2019 23:00:00 17,9 16,6 27 15 40 22 N 1014,8 15 0,0
24.06.2019 22:00:00 18,2 16,9 28 15 44 24 N 1014,5 - 0,0
24.06.2019 21:00:00 18,7 16,8 29 16 46 25 N 1014,5 - 0,0
24.06.2019 20:00:00 18,8 16,9 28 15 46 25 N 1014,6 15 0,0
24.06.2019 19:00:00 18,7 16,7 27 14 40 22 N 1014,7 - 0,0
24.06.2019 18:00:00 20,3 17,5 15 8 32 18 N 1015,6 - 0,0
24.06.2019 17:00:00 20,3 17,5 16 8 32 18 NNE 1014,8 - 0,0
24.06.2019 16:00:00 19,2 17,3 21 11 35 19 NE 1014,6 - 0,2
24.06.2019 15:00:00 19,8 17,4 23 12 37 20 NNE 1014,9 - 0,0
24.06.2019 14:00:00 19,4 17,4 18 10 31 17 NE 1015,3 - 0,0
24.06.2019 13:00:00 19,4 16,8 16 9 26 14 NE 1015,6 - 0,0
24.06.2019 12:00:00 18,8 16,8 13 7 30 16 ENE 1015,3 - 0,0
24.06.2019 11:00:00 17,8 16,7 18 10 34 18 NE 1015,1 15 0,0
24.06.2019 10:00:00 16,9 16,6 19 10 34 18 ENE 1015,3 - 0,0
24.06.2019 09:00:00 16,4 16,1 14 8 23 13 ENE 1015,7 - 2,3
24.06.2019 08:00:00 16,1 15,5 13 7 27 15 NNE 1016,0 15 0,6
24.06.2019 07:00:00 15,9 15,3 18 10 29 16 N 1015,4 - 1,0
24.06.2019 06:00:00 15,0 13,9 18 10 27 15 NNE 1014,7 - 1,6
24.06.2019 05:00:00 16,7 16,4 11 6 24 13 NNW 1015,6 15 1,2
24.06.2019 04:00:00 16,9 16,6 11 6 22 12 N 1015,4 - 0,6
24.06.2019 03:00:00 16,6 16,1 9 5 18 10 N 1015,0 - 0,6
24.06.2019 02:00:00 16,4 15,6 3 2 20 11 ESE 1015,6 20 0,0
24.06.2019 01:00:00 17,1 16,5 14 8 33 18 NNW 1014,5 - 0,0
24.06.2019 00:00:00 17,5 16,9 18 10 30 16 NNW 1013,5 - 0,0
23.06.2019 23:00:00 18,0 16,8 8 4 27 15 WSW 1014,3 20 0,0
23.06.2019 22:00:00 18,5 16,8 5 3 19 10 WSW 1013,4 - 0,0
23.06.2019 21:00:00 19,1 16,9 6 3 20 11 W 1013,4 - 0,0
23.06.2019 20:00:00 19,6 17,2 8 5 27 15 W 1012,6 25 0,0
23.06.2019 19:00:00 19,6 17,0 7 4 22 12 WSW 1011,7 - 0,0
23.06.2019 18:00:00 21,4 17,4 10 6 30 16 WSW 1011,1 - 0,2
23.06.2019 17:00:00 22,2 17,3 16 9 31 17 SSW 1011,0 25 0,0
23.06.2019 16:00:00 22,4 17,1 20 11 35 19 S 1010,9 - 0,0
23.06.2019 15:00:00 24,4 16,6 13 7 33 18 SSE 1010,3 - 0,0
23.06.2019 14:00:00 23,7 16,2 14 8 26 14 SSE 1010,7 25 0,0
23.06.2019 13:00:00 26,0 16,5 14 8 35 19 ESE 1010,2 - 0,0
23.06.2019 12:00:00 24,4 16,4 13 7 30 16 ESE 1010,5 - 0,0
23.06.2019 11:00:00 21,6 15,7 14 8 25 13 ESE 1011,3 25 0,0
23.06.2019 10:00:00 21,9 16,4 11 6 26 14 E 1011,6 - 0,0
23.06.2019 09:00:00 19,6 15,9 12 7 29 15 ESE 1011,5 - 0,0
23.06.2019 08:00:00 18,5 15,0 16 8 29 15 E 1011,4 - 0,0
23.06.2019 07:00:00 18,1 14,4 18 10 33 18 ESE 1011,1 - 0,0
23.06.2019 06:00:00 18,5 14,0 18 10 36 19 E 1011,3 - 0,0
23.06.2019 05:00:00 18,2 14,3 14 8 27 15 E 1012,2 25 0,0
23.06.2019 04:00:00 18,3 13,8 15 8 28 15 E 1012,4 - 0,0
23.06.2019 03:00:00 18,6 13,2 16 9 31 17 E 1012,9 - 0,0
23.06.2019 02:00:00 18,3 13,2 13 7 24 13 E 1013,7 25 0,0
23.06.2019 01:00:00 17,9 13,2 12 7 22 12 E 1014,2 - 0,0
23.06.2019 00:00:00 17,8 14,1 12 7 16 9 NE 1014,4 - 0,0
22.06.2019 23:00:00 17,5 12,4 14 8 19 11 N 1014,6 25 0,0
22.06.2019 22:00:00 18,2 11,5 13 7 22 12 N 1014,5 - 0,0
22.06.2019 21:00:00 19,8 11,8 12 7 17 9 N 1014,6 - 0,0
22.06.2019 20:00:00 20,9 11,8 10 5 18 10 N 1014,6 25 0,0
22.06.2019 19:00:00 22,8 12,1 12 7 19 10 N 1015,0 - 0,0
22.06.2019 18:00:00 24,4 11,0 4 2 13 7 ESE 1015,1 - 0,0
22.06.2019 17:00:00 22,3 12,8 8 4 18 10 WSW 1016,3 20 0,0
22.06.2019 16:00:00 23,1 10,8 9 5 23 12 S 1016,3 - 0,0
22.06.2019 15:00:00 22,3 13,6 12 6 24 13 SSW 1017,2 - 0,0
22.06.2019 14:00:00 21,6 13,5 10 5 29 15 S 1017,7 20 0,0
22.06.2019 13:00:00 21,9 13,8 18 10 31 17 SSE 1017,8 - 0,0
22.06.2019 12:00:00 21,5 14,6 16 9 25 13 SE 1018,3 - 0,0
22.06.2019 11:00:00 20,2 13,4 9 5 25 14 SE 1018,6 - 0,0
22.06.2019 10:00:00 19,8 14,2 11 6 27 14 ESE 1019,0 - 0,0
22.06.2019 09:00:00 18,4 13,3 11 6 24 13 ESE 1018,7 - 0,0
22.06.2019 08:00:00 16,2 12,9 11 6 22 12 E 1018,8 20 0,0
22.06.2019 07:00:00 14,4 12,1 11 6 24 13 E 1018,9 - 0,0
22.06.2019 06:00:00 14,4 11,7 15 8 31 17 ENE 1018,6 - 0,0
22.06.2019 05:00:00 14,2 11,0 15 8 28 15 ENE 1019,0 20 0,0
22.06.2019 04:00:00 14,8 10,8 18 10 27 15 ENE 1019,5 - 0,0
22.06.2019 03:00:00 15,2 11,0 17 9 28 15 NE 1019,8 - 0,0
22.06.2019 02:00:00 15,5 11,7 18 10 26 14 NE 1020,3 - 0,0
22.06.2019 01:00:00 15,6 13,3 16 8 22 12 N 1020,7 - 0,0
22.06.2019 00:00:00 15,6 12,3 13 7 25 13 NNW 1021,1 - 0,0
21.06.2019 23:00:00 16,0 12,4 15 8 28 15 NNW 1021,2 - 0,0
21.06.2019 22:00:00 16,1 12,5 16 9 34 18 NNW 1020,9 - 0,0
21.06.2019 21:00:00 17,4 12,5 19 11 39 21 NNW 1020,6 - 0,0
21.06.2019 20:00:00 18,5 11,8 19 10 39 21 NNW 1020,5 25 0,0
21.06.2019 19:00:00 19,3 11,1 20 11 41 22 NNW 1020,5 - 0,0
21.06.2019 18:00:00 19,6 10,8 17 9 37 20 NNW 1020,4 - 0,0
21.06.2019 17:00:00 19,8 11,0 19 10 39 21 NNW 1020,5 25 0,0
21.06.2019 16:00:00 19,6 11,1 18 10 40 21 NNW 1020,7 - 0,0
21.06.2019 15:00:00 19,5 11,3 18 10 37 20 NNW 1020,8 - 0,0
21.06.2019 14:00:00 19,1 10,9 21 11 35 19 N 1020,8 25 0,0
21.06.2019 13:00:00 18,9 11,9 18 10 36 19 N 1020,8 - 0,0
21.06.2019 12:00:00 18,0 10,8 19 10 34 18 N 1021,0 - 0,0
21.06.2019 11:00:00 17,7 11,0 19 10 31 17 NNE 1020,9 25 0,0
21.06.2019 10:00:00 16,8 10,9 21 11 33 18 NNE 1020,8 - 0,0
21.06.2019 09:00:00 16,4 11,1 20 11 34 18 NNE 1020,5 - 0,0
21.06.2019 08:00:00 15,0 11,0 17 9 28 15 NNE 1020,0 20 0,0
21.06.2019 07:00:00 13,9 9,9 19 10 35 19 NE 1019,8 - 0,0
21.06.2019 06:00:00 13,6 9,8 18 10 33 18 NNE 1019,7 - 0,0
21.06.2019 05:00:00 13,6 10,4 16 9 27 15 NNE 1019,5 - 0,0
21.06.2019 04:00:00 14,0 11,7 14 8 26 14 NNE 1019,3 - 0,0
21.06.2019 03:00:00 13,7 12,4 10 5 22 12 N 1019,1 - 0,0
21.06.2019 02:00:00 13,7 12,6 16 9 24 13 NNW 1019,2 20 0,0
21.06.2019 01:00:00 13,3 11,7 15 8 22 12 NW 1019,6 - 0,0
21.06.2019 00:00:00 13,3 11,2 13 7 22 12 NW 1019,3 - 0,0
20.06.2019 23:00:00 13,9 11,1 16 8 27 14 NW 1019,1 25 0,0
20.06.2019 22:00:00 14,7 11,3 16 9 31 17 NW 1018,5 - 0,0
20.06.2019 21:00:00 16,4 11,5 19 10 36 19 NW 1018,3 - 0,0
20.06.2019 20:00:00 17,2 11,7 22 12 34 19 NW 1018,5 25 0,0
20.06.2019 19:00:00 17,8 11,8 22 12 37 20 NW 1018,4 - 0,0

tt = Température de l'air
td = dewpoint
ff = Vitesse du vent
fx = gusts
dd = Direction du vent
ppp = reduced air pressure
vv = visibility
rr = Quantités de précipitations

stations d'obs. à proximité